User: anonymous   Login
Location: Unspecified
(53.6186°N, 1.3184°W)
Time: 17:17:19
(UTC+00:00)
Language:

ISS - Orbit

View from above orbital plane
View from above orbital plane
View from above satellite
View from above satellite

Ground track
Ground track

The orbit data is extracted from the following two-line orbital elements,

1 25544U 98067A   18053.55158171  .00016717  00000-0  10270-3 0  9030
2 25544  51.6365 230.2021 0002963 123.2363 236.9074 15.54107784 20687
Epoch (UTC): 22 February 2018 13:14:16
Eccentricity: 0.0002963
inclination: 51.6365°
perigee height: 403 km
apogee height: 407 km
right ascension of ascending node: 230.2021°
argument of perigee: 123.2363°
revolutions per day: 15.54107784
mean anomaly at epoch: 236.9074°
orbit number at epoch: 2068

The dashed part of the orbit path shows where the satellite is in the earth's shadow,  

DLR